Location: Clover
(42.5131°N, 114.6874°W)
Time: 15:06:29
(UTC+00:00)

Transit 2A Rocket - Pass Details

Date: 09 November 2024
Orbit: 585 x 904 km, 66.7° (Epoch: 02 December)

Event Time Altitude Azimuth Distance (km) Brightness Sun altitude
Rises 03:02:57 0° 325° (NW) 3,258 8.8 -29.7°
Reaches altitude 10° 03:05:30 10° 320° (NW) 2,273 7.9 -30.2°
Enters shadow 03:09:45 46° 275° (W) 944 5.7 -31.0°
